sat.trackr.live / text

‹ back to catalog

STARLINK-34750

NORAD 65061 · 2025-165F

PAYLOAD ACTIVE UNKNOWN

§ Identity

Operator
Country
US
Launch date
2025-07-31
Launch site
AFWTR
Launch vehicle
Mass (kg)
RCS (m²)

Purposes: comms

External: N2YO · Heavens-Above · Gunter

§ Orbital elements

Epoch: 2026-05-25T04:08:28.092768Z

Period
95.64 min
Inclination
97.4493°
Eccentricity
0.0001606
Mean motion
15.05643668 rev/d
Perigee alt
548.4 km
Apogee alt
550.6 km
Semi-major
6,927.7 km
B*
-5.3220e-5
RAAN
222.3218°
Arg perigee
173.0074°
Mean anomaly
187.1176°
Rev number
4,630

§ Raw data

STARLINK-347501 65061U 25165F   26145.17254737 -.00000826  00000+0 -53220-4 0  99942 65061  97.4493 222.3218 0001606 173.0074 187.1176 15.05643668 46309

JSON: /api/v1/satellites/65061 · /tle

For live sub-satellite position, see the globe view (requires WebGL).

§ Visibility from observer

Set your observer location to see the next 7 days of passes ≥ 10°. The values pass through the URL so the page stays shareable.

No JS? Fill the form by hand. The geolocation button needs JavaScript.